Time,TemperatureF,DewpointF,PressureIn,WindDirection,WindDirectionDegrees,WindSpeedMPH,WindSpeedGustMPH,Humidity,HourlyPrecipIn,Conditions,Clouds,dailyrainin,SoftwareType,DateUTC
2013-02-13 00:00:00,47.5,32.1,29.18,NW,304,6.3,9.2,55,0.00,,,0.00,LWC V2.10 B1813,2013-02-13 06:00:00,
2013-02-13 00:05:00,47.3,32.0,29.18,NNE,15,3.6,8.7,55,0.00,,,0.00,LWC V2.10 B1813,2013-02-13 06:05:00,
2013-02-13 00:10:00,47.3,32.0,29.18,NW,314,8.3,10.5,55,0.00,,,0.00,LWC V2.10 B1813,2013-02-13 06:10:00,
2013-02-13 00:15:00,46.9,31.6,29.20,WNW,287,10.1,11.4,55,0.00,,,0.00,LWC V2.10 B1813,2013-02-13 06:15:00,
2013-02-13 00:20:00,46.6,31.3,29.20,WNW,288,13.6,13.6,55,0.00,,,0.00,LWC V2.10 B1813,2013-02-13 06:20:00,
2013-02-13 00:25:00,46.0,30.8,29.20,NW,311,10.5,15.0,55,0.00,,,0.00,LWC V2.10 B1813,2013-02-13 06:25:00,
2013-02-13 00:30:00,45.5,29.8,29.18,WNW,298,12.8,14.5,54,0.00,,,0.00,LWC V2.10 B1813,2013-02-13 06:30:00,
2013-02-13 00:35:00,45.3,29.7,29.18,West,281,4.0,13.2,54,0.00,,,0.00,LWC V2.10 B1813,2013-02-13 06:35:00,
2013-02-13 00:40:00,45.1,29.5,29.18,NNW,342,8.1,12.8,54,0.00,,,0.00,LWC V2.10 B1813,2013-02-13 06:40:00,
2013-02-13 00:45:00,44.8,29.2,29.18,West,269,8.3,15.4,54,0.00,,,0.00,LWC V2.10 B1813,2013-02-13 06:45:00,
2013-02-13 00:50:00,44.6,29.0,29.18,WNW,296,3.6,13.2,54,0.00,,,0.00,LWC V2.10 B1813,2013-02-13 06:50:00,
2013-02-13 00:55:00,44.6,29.0,29.18,WNW,294,6.3,7.6,54,0.00,,,0.00,LWC V2.10 B1813,2013-02-13 06:55:00,
2013-02-13 01:00:00,44.2,29.1,29.20,WNW,282,5.4,8.3,55,0.00,,,0.00,LWC V2.10 B1813,2013-02-13 07:00:00,
2013-02-13 01:02:00,44.2,29.1,29.20,WNW,292,3.1,7.6,55,0.00,,,0.00,LWC V2.10 B1813,2013-02-13 07:02:00,
2013-02-13 01:07:00,44.1,28.9,29.20,NW,312,5.8,6.3,55,0.00,,,0.00,LWC V2.10 B1813,2013-02-13 07:07:00,
2013-02-13 01:12:00,43.7,28.6,29.20,NNW,335,3.6,8.3,55,0.00,,,0.00,LWC V2.10 B1813,2013-02-13 07:12:00,
2013-02-13 01:17:00,43.7,29.0,29.20,WNW,301,4.9,10.1,56,0.00,,,0.00,LWC V2.10 B1813,2013-02-13 07:17:00,
2013-02-13 01:23:00,43.5,28.9,29.20,WNW,301,4.9,7.6,56,0.00,,,0.00,LWC V2.10 B1813,2013-02-13 07:23:00,
2013-02-13 01:28:00,43.5,28.9,29.20,NW,307,8.3,8.3,56,0.00,,,0.00,LWC V2.10 B1813,2013-02-13 07:28:00,
2013-02-13 01:33:00,43.3,28.7,29.20,NNW,336,8.7,8.7,56,0.00,,,0.00,LWC V2.10 B1813,2013-02-13 07:33:00,
2013-02-13 01:38:00,43.2,28.5,29.20,NNW,341,7.6,7.6,56,0.00,,,0.00,LWC V2.10 B1813,2013-02-13 07:38:00,
2013-02-13 01:43:00,43.0,28.4,29.20,NW,317,3.1,7.6,56,0.00,,,0.00,LWC V2.10 B1813,2013-02-13 07:43:00,
2013-02-13 01:48:00,43.0,28.4,29.18,WNW,303,4.0,10.1,56,0.00,,,0.00,LWC V2.10 B1813,2013-02-13 07:48:00,
2013-02-13 01:53:00,42.6,28.5,29.18,WSW,240,3.6,6.7,57,0.00,,,0.00,LWC V2.10 B1813,2013-02-13 07:53:00,
2013-02-13 01:58:00,42.3,28.1,29.18,WSW,250,5.4,5.4,57,0.00,,,0.00,LWC V2.10 B1813,2013-02-13 07:58:00,
2013-02-13 02:03:00,42.1,28.4,29.20,WSW,257,3.6,8.1,58,0.00,,,0.00,LWC V2.10 B1813,2013-02-13 08:03:00,
2013-02-13 02:08:00,42.1,28.4,29.20,WNW,299,5.8,8.3,58,0.00,,,0.00,LWC V2.10 B1813,2013-02-13 08:08:00,
2013-02-13 02:13:00,42.1,28.4,29.20,NW,311,6.3,8.7,58,0.00,,,0.00,LWC V2.10 B1813,2013-02-13 08:13:00,
2013-02-13 02:18:00,42.1,28.4,29.20,West,266,4.0,6.3,58,0.00,,,0.00,LWC V2.10 B1813,2013-02-13 08:18:00,
2013-02-13 02:23:00,41.9,28.2,29.20,NW,311,6.3,7.6,58,0.00,,,0.00,LWC V2.10 B1813,2013-02-13 08:23:00,
2013-02-13 02:28:00,41.9,28.6,29.20,NW,326,3.1,8.1,59,0.00,,,0.00,LWC V2.10 B1813,2013-02-13 08:28:00,
2013-02-13 02:33:00,41.7,28.5,29.24,NW,320,3.6,5.4,59,0.00,,,0.00,LWC V2.10 B1813,2013-02-13 08:33:00,
2013-02-13 02:38:00,41.7,28.5,29.24,NNW,336,4.9,5.8,59,0.00,,,0.00,LWC V2.10 B1813,2013-02-13 08:38:00,
2013-02-13 02:43:00,41.7,28.5,29.24,NW,317,0.0,7.6,59,0.00,,,0.00,LWC V2.10 B1813,2013-02-13 08:43:00,
2013-02-13 02:48:00,41.5,28.7,29.24,NW,307,3.6,5.8,60,0.00,,,0.00,LWC V2.10 B1813,2013-02-13 08:48:00,
2013-02-13 02:53:00,41.5,28.7,29.24,NNW,338,5.4,5.8,60,0.00,,,0.00,LWC V2.10 B1813,2013-02-13 08:53:00,
2013-02-13 02:58:00,41.5,28.7,29.24,WNW,287,2.7,6.3,60,0.00,,,0.00,LWC V2.10 B1813,2013-02-13 08:58:00,
2013-02-13 03:03:00,41.4,28.9,29.24,NW,314,5.4,6.3,61,0.00,,,0.00,LWC V2.10 B1813,2013-02-13 09:03:00,
2013-02-13 03:08:00,41.2,28.8,29.24,WNW,300,5.4,8.7,61,0.00,,,0.00,LWC V2.10 B1813,2013-02-13 09:08:00,
2013-02-13 03:13:00,41.2,28.8,29.24,NW,315,5.4,6.3,61,0.00,,,0.00,LWC V2.10 B1813,2013-02-13 09:13:00,
2013-02-13 03:18:00,41.0,29.0,29.24,WNW,286,7.6,7.6,62,0.00,,,0.00,LWC V2.10 B1813,2013-02-13 09:18:00,
2013-02-13 03:23:00,40.6,29.0,29.24,NW,313,3.1,8.3,63,0.00,,,0.00,LWC V2.10 B1813,2013-02-13 09:23:00,
2013-02-13 03:28:00,40.5,29.3,29.24,North,357,7.6,8.3,64,0.00,,,0.00,LWC V2.10 B1813,2013-02-13 09:28:00,
2013-02-13 03:33:00,40.5,29.3,29.20,NW,320,7.2,7.6,64,0.00,,,0.00,LWC V2.10 B1813,2013-02-13 09:33:00,
2013-02-13 03:38:00,40.3,29.5,29.20,NW,308,5.8,6.3,65,0.00,,,0.00,LWC V2.10 B1813,2013-02-13 09:38:00,
2013-02-13 03:43:00,40.1,29.3,29.20,NW,315,6.3,8.1,65,0.00,,,0.00,LWC V2.10 B1813,2013-02-13 09:43:00,
2013-02-13 03:48:00,39.9,29.5,29.20,NW,309,5.8,6.3,66,0.00,,,0.00,LWC V2.10 B1813,2013-02-13 09:48:00,
2013-02-13 03:53:00,39.7,29.3,29.20,WNW,284,3.6,10.1,66,0.00,,,0.00,LWC V2.10 B1813,2013-02-13 09:53:00,
2013-02-13 03:58:00,39.7,29.7,29.20,NNW,336,4.0,8.1,67,0.00,,,0.00,LWC V2.10 B1813,2013-02-13 09:58:00,
2013-02-13 04:03:00,39.4,29.3,29.24,NW,315,9.6,9.6,67,0.00,,,0.00,LWC V2.10 B1813,2013-02-13 10:03:00,
2013-02-13 04:08:00,39.2,29.5,29.24,NNW,333,8.7,10.1,68,0.00,,,0.00,LWC V2.10 B1813,2013-02-13 10:08:00,
2013-02-13 04:13:00,39.2,29.5,29.24,North,353,5.4,6.3,68,0.00,,,0.00,LWC V2.10 B1813,2013-02-13 10:13:00,
2013-02-13 04:18:00,39.2,29.9,29.20,NE,38,3.1,6.3,69,0.00,,,0.00,LWC V2.10 B1813,2013-02-13 10:18:00,
2013-02-13 04:23:00,39.2,29.9,29.20,NNW,328,4.0,8.3,69,0.00,,,0.00,LWC V2.10 B1813,2013-02-13 10:23:00,
2013-02-13 04:28:00,39.4,30.4,29.20,WNW,288,8.7,8.7,70,0.00,,,0.00,LWC V2.10 B1813,2013-02-13 10:28:00,
2013-02-13 04:33:00,39.2,30.3,29.20,WNW,296,5.8,7.6,70,0.00,,,0.00,LWC V2.10 B1813,2013-02-13 10:33:00,
2013-02-13 04:38:00,39.2,29.9,29.20,WNW,287,6.7,8.1,69,0.00,,,0.00,LWC V2.10 B1813,2013-02-13 10:38:00,
2013-02-13 04:40:00,39.2,29.9,29.20,NNW,330,7.6,7.6,69,0.00,,,0.00,LWC V2.10 B1813,2013-02-13 10:40:00,
2013-02-13 04:45:00,39.0,30.1,29.20,NW,313,7.6,8.7,70,0.00,,,0.00,LWC V2.10 B1813,2013-02-13 10:45:00,
2013-02-13 04:50:00,39.0,30.1,29.20,NNW,339,3.6,6.3,70,0.00,,,0.00,LWC V2.10 B1813,2013-02-13 10:50:00,
2013-02-13 04:55:00,39.2,30.3,29.20,NW,321,3.6,7.6,70,0.00,,,0.00,LWC V2.10 B1813,2013-02-13 10:55:00,
2013-02-13 05:00:00,39.0,30.1,29.20,NW,326,2.7,6.3,70,0.00,,,0.00,LWC V2.10 B1813,2013-02-13 11:00:00,
2013-02-13 05:05:00,39.2,30.3,29.20,WNW,297,7.2,8.1,70,0.00,,,0.00,LWC V2.10 B1813,2013-02-13 11:05:00,
2013-02-13 05:10:00,39.2,30.3,29.20,North,4,5.4,5.8,70,0.00,,,0.00,LWC V2.10 B1813,2013-02-13 11:10:00,
2013-02-13 05:15:00,39.2,30.3,29.20,NW,317,4.0,8.3,70,0.00,,,0.00,LWC V2.10 B1813,2013-02-13 11:15:00,
2013-02-13 05:20:00,39.2,30.3,29.20,WNW,297,3.6,6.3,70,0.00,,,0.00,LWC V2.10 B1813,2013-02-13 11:20:00,
2013-02-13 05:25:00,39.2,30.6,29.20,NNW,342,2.7,3.1,71,0.00,,,0.00,LWC V2.10 B1813,2013-02-13 11:25:00,
2013-02-13 05:30:00,39.2,30.6,29.24,NW,304,2.7,8.7,71,0.00,,,0.00,LWC V2.10 B1813,2013-02-13 11:30:00,
2013-02-13 05:35:00,39.0,30.4,29.24,NNW,328,5.4,5.4,71,0.00,,,0.00,LWC V2.10 B1813,2013-02-13 11:35:00,
2013-02-13 05:40:00,38.8,30.3,29.24,NW,309,5.4,5.8,71,0.00,,,0.00,LWC V2.10 B1813,2013-02-13 11:40:00,
2013-02-13 05:45:00,38.8,30.3,29.20,NW,312,4.0,5.4,71,0.00,,,0.00,LWC V2.10 B1813,2013-02-13 11:45:00,
2013-02-13 05:50:00,38.8,30.3,29.20,WNW,296,2.7,6.3,71,0.00,,,0.00,LWC V2.10 B1813,2013-02-13 11:50:00,
2013-02-13 05:55:00,38.8,30.3,29.20,NW,309,3.6,4.9,71,0.00,,,0.00,LWC V2.10 B1813,2013-02-13 11:55:00,
2013-02-13 06:00:00,38.8,30.6,29.20,NW,310,8.3,8.3,72,0.00,,,0.00,LWC V2.10 B1813,2013-02-13 12:00:00,
2013-02-13 06:05:00,38.8,30.6,29.20,NNW,332,5.4,5.4,72,0.00,,,0.00,LWC V2.10 B1813,2013-02-13 12:05:00,
2013-02-13 06:10:00,38.8,30.6,29.20,NW,314,2.7,4.9,72,0.00,,,0.00,LWC V2.10 B1813,2013-02-13 12:10:00,
2013-02-13 06:15:00,38.7,30.4,29.24,North,350,3.1,5.4,72,0.00,,,0.00,LWC V2.10 B1813,2013-02-13 12:15:00,
2013-02-13 06:20:00,38.7,30.4,29.24,NW,306,5.8,7.6,72,0.00,,,0.00,LWC V2.10 B1813,2013-02-13 12:20:00,
2013-02-13 06:25:00,38.7,30.4,29.24,NNW,346,5.4,5.4,72,0.00,,,0.00,LWC V2.10 B1813,2013-02-13 12:25:00,
2013-02-13 06:30:00,38.7,30.4,29.24,NNW,330,3.1,4.0,72,0.00,,,0.00,LWC V2.10 B1813,2013-02-13 12:30:00,
2013-02-13 06:35:00,38.5,30.3,29.24,NW,304,5.4,7.6,72,0.00,,,0.00,LWC V2.10 B1813,2013-02-13 12:35:00,
2013-02-13 06:40:00,38.5,30.3,29.24,NW,313,4.0,6.3,72,0.00,,,0.00,LWC V2.10 B1813,2013-02-13 12:40:00,
2013-02-13 06:45:00,38.5,30.6,29.24,West,279,3.6,5.8,73,0.00,,,0.00,LWC V2.10 B1813,2013-02-13 12:45:00,
2013-02-13 06:50:00,38.1,30.2,29.24,WNW,293,3.6,6.3,73,0.00,,,0.00,LWC V2.10 B1813,2013-02-13 12:50:00,
2013-02-13 06:55:00,38.1,30.2,29.24,NW,322,3.6,4.0,73,0.00,,,0.00,LWC V2.10 B1813,2013-02-13 12:55:00,
2013-02-13 07:00:00,37.9,30.1,29.24,NW,320,5.4,7.6,73,0.00,,,0.00,LWC V2.10 B1813,2013-02-13 13:00:00,
2013-02-13 07:05:00,37.9,30.1,29.24,NW,310,0.0,4.0,73,0.00,,,0.00,LWC V2.10 B1813,2013-02-13 13:05:00,
2013-02-13 07:10:00,37.8,29.9,29.24,WNW,302,3.1,4.0,73,0.00,,,0.00,LWC V2.10 B1813,2013-02-13 13:10:00,
2013-02-13 07:15:00,37.6,30.1,29.24,West,274,4.0,4.9,74,0.00,,,0.00,LWC V2.10 B1813,2013-02-13 13:15:00,
2013-02-13 07:20:00,37.4,29.9,29.24,WNW,299,2.2,3.1,74,0.00,,,0.00,LWC V2.10 B1813,2013-02-13 13:20:00,
2013-02-13 07:25:00,37.4,29.9,29.24,West,265,2.7,2.7,74,0.00,,,0.00,LWC V2.10 B1813,2013-02-13 13:25:00,
2013-02-13 07:30:00,37.4,29.9,29.24,WNW,299,3.1,5.4,74,0.00,,,0.00,LWC V2.10 B1813,2013-02-13 13:30:00,
2013-02-13 07:35:00,37.6,30.1,29.24,NW,306,3.1,4.9,74,0.00,,,0.00,LWC V2.10 B1813,2013-02-13 13:35:00,
2013-02-13 07:40:00,37.8,30.2,29.24,WNW,284,5.8,5.8,74,0.00,,,0.00,LWC V2.10 B1813,2013-02-13 13:40:00,
2013-02-13 07:45:00,37.8,30.2,29.24,NW,313,5.4,7.6,74,0.00,,,0.00,LWC V2.10 B1813,2013-02-13 13:45:00,
2013-02-13 07:50:00,37.9,30.4,29.24,NNW,346,2.7,4.0,74,0.00,,,0.00,LWC V2.10 B1813,2013-02-13 13:50:00,
2013-02-13 07:55:00,37.9,30.4,29.24,NNW,328,3.1,5.8,74,0.00,,,0.00,LWC V2.10 B1813,2013-02-13 13:55:00,
2013-02-13 08:00:00,38.1,30.6,29.26,NNW,332,4.9,5.4,74,0.00,,,0.00,LWC V2.10 B1813,2013-02-13 14:00:00,
2013-02-13 08:05:00,38.3,30.8,29.26,NNW,331,4.0,5.8,74,0.00,,,0.00,LWC V2.10 B1813,2013-02-13 14:05:00,
2013-02-13 08:10:00,38.5,30.9,29.26,NNW,328,3.1,5.4,74,0.00,,,0.00,LWC V2.10 B1813,2013-02-13 14:10:00,
2013-02-13 08:15:00,38.7,31.1,29.26,North,353,3.6,6.3,74,0.00,,,0.00,LWC V2.10 B1813,2013-02-13 14:15:00,
2013-02-13 08:20:00,38.8,30.9,29.26,NNW,331,6.3,6.3,73,0.00,,,0.00,LWC V2.10 B1813,2013-02-13 14:20:00,
2013-02-13 08:25:00,39.2,31.3,29.26,WNW,292,5.4,6.3,73,0.00,,,0.00,LWC V2.10 B1813,2013-02-13 14:25:00,
2013-02-13 08:30:00,39.4,31.5,29.26,NNW,341,3.6,5.4,73,0.00,,,0.00,LWC V2.10 B1813,2013-02-13 14:30:00,
2013-02-13 08:35:00,39.9,31.6,29.26,NNW,348,3.1,6.7,72,0.00,,,0.00,LWC V2.10 B1813,2013-02-13 14:35:00,
2013-02-13 08:40:00,40.1,31.8,29.26,NW,320,6.3,6.3,72,0.00,,,0.00,LWC V2.10 B1813,2013-02-13 14:40:00,
2013-02-13 08:45:00,40.5,31.8,29.26,NW,313,6.3,8.3,71,0.00,,,0.00,LWC V2.10 B1813,2013-02-13 14:45:00,
2013-02-13 08:50:00,40.8,32.2,29.26,NW,314,5.4,5.8,71,0.00,,,0.00,LWC V2.10 B1813,2013-02-13 14:50:00,
2013-02-13 08:55:00,41.0,31.6,29.26,NW,317,5.8,8.1,69,0.00,,,0.00,LWC V2.10 B1813,2013-02-13 14:55:00,
2013-02-13 09:00:00,41.4,32.0,29.24,NNW,333,3.6,8.1,69,0.00,,,0.00,LWC V2.10 B1813,2013-02-13 15:00:00,
2013-02-13 09:05:00,41.7,31.9,29.24,WNW,287,5.8,5.8,68,0.00,,,0.00,LWC V2.10 B1813,2013-02-13 15:05:00,
2013-02-13 09:10:00,42.3,32.5,29.24,NW,321,0.0,7.2,68,0.00,,,0.00,LWC V2.10 B1813,2013-02-13 15:10:00,
2013-02-13 09:15:00,42.8,32.6,29.26,NW,305,3.6,6.3,67,0.00,,,0.00,LWC V2.10 B1813,2013-02-13 15:15:00,
2013-02-13 09:20:00,43.0,32.4,29.26,NW,325,2.7,8.7,66,0.00,,,0.00,LWC V2.10 B1813,2013-02-13 15:20:00,
2013-02-13 09:25:00,43.5,32.5,29.26,West,263,3.6,6.3,65,0.00,,,0.00,LWC V2.10 B1813,2013-02-13 15:25:00,
2013-02-13 09:30:00,44.1,33.1,29.26,WNW,301,3.6,7.2,65,0.00,,,0.00,LWC V2.10 B1813,2013-02-13 15:30:00,
2013-02-13 09:35:00,44.6,32.8,29.26,West,278,5.8,5.8,63,0.00,,,0.00,LWC V2.10 B1813,2013-02-13 15:35:00,
2013-02-13 09:40:00,44.8,32.6,29.26,West,265,3.6,8.7,62,0.00,,,0.00,LWC V2.10 B1813,2013-02-13 15:40:00,
2013-02-13 09:45:00,45.5,33.2,29.26,WNW,294,2.7,4.0,62,0.00,,,0.00,LWC V2.10 B1813,2013-02-13 15:45:00,
2013-02-13 09:50:00,46.2,33.5,29.26,WNW,293,8.1,8.1,61,0.00,,,0.00,LWC V2.10 B1813,2013-02-13 15:50:00,
2013-02-13 09:55:00,46.8,33.6,29.26,WNW,282,6.7,6.7,60,0.00,,,0.00,LWC V2.10 B1813,2013-02-13 15:55:00,
2013-02-13 10:00:00,47.1,33.5,29.26,NNW,333,4.5,7.6,59,0.00,,,0.00,LWC V2.10 B1813,2013-02-13 16:00:00,
2013-02-13 10:05:00,47.3,32.8,29.26,West,276,4.9,6.3,57,0.00,,,0.00,LWC V2.10 B1813,2013-02-13 16:05:00,
2013-02-13 10:10:00,47.8,32.9,29.26,WNW,299,5.4,8.3,56,0.00,,,0.00,LWC V2.10 B1813,2013-02-13 16:10:00,
2013-02-13 10:15:00,48.2,32.8,29.26,NW,316,5.4,5.8,55,0.00,,,0.00,LWC V2.10 B1813,2013-02-13 16:15:00,
2013-02-13 10:20:00,48.6,32.7,29.26,WSW,248,4.0,9.2,54,0.00,,,0.00,LWC V2.10 B1813,2013-02-13 16:20:00,
2013-02-13 10:25:00,48.7,32.8,29.26,WNW,301,5.4,8.3,54,0.00,,,0.00,LWC V2.10 B1813,2013-02-13 16:25:00,
2013-02-13 10:30:00,48.7,32.4,29.26,West,278,2.7,7.6,53,0.00,,,0.00,LWC V2.10 B1813,2013-02-13 16:30:00,
2013-02-13 10:35:00,49.8,33.4,29.26,NW,311,3.1,5.4,53,0.00,,,0.00,LWC V2.10 B1813,2013-02-13 16:35:00,
2013-02-13 10:40:00,50.4,33.4,29.26,WNW,299,6.3,6.3,52,0.00,,,0.00,LWC V2.10 B1813,2013-02-13 16:40:00,
2013-02-13 10:45:00,50.4,32.9,29.26,NW,322,4.9,8.7,51,0.00,,,0.00,LWC V2.10 B1813,2013-02-13 16:45:00,
2013-02-13 10:50:00,50.9,33.4,29.26,NW,317,5.8,5.8,51,0.00,,,0.00,LWC V2.10 B1813,2013-02-13 16:50:00,
2013-02-13 10:55:00,51.1,33.1,29.26,WNW,302,3.6,8.7,50,0.00,,,0.00,LWC V2.10 B1813,2013-02-13 16:55:00,
2013-02-13 11:00:00,51.3,33.3,29.26,NW,305,2.7,5.8,50,0.00,,,0.00,LWC V2.10 B1813,2013-02-13 17:00:00,
2013-02-13 11:05:00,51.6,33.6,29.26,NW,317,5.8,7.2,50,0.00,,,0.00,LWC V2.10 B1813,2013-02-13 17:05:00,
2013-02-13 11:10:00,52.0,33.4,29.26,WNW,303,8.3,8.3,49,0.00,,,0.00,LWC V2.10 B1813,2013-02-13 17:10:00,
2013-02-13 11:15:00,51.8,33.3,29.26,NW,319,5.4,5.4,49,0.00,,,0.00,LWC V2.10 B1813,2013-02-13 17:15:00,
2013-02-13 11:20:00,52.5,33.9,29.26,NW,313,7.6,7.6,49,0.00,,,0.00,LWC V2.10 B1813,2013-02-13 17:20:00,
2013-02-13 11:25:00,52.9,33.7,29.26,NW,311,5.8,6.3,48,0.00,,,0.00,LWC V2.10 B1813,2013-02-13 17:25:00,
2013-02-13 11:30:00,53.4,34.2,29.26,WNW,300,5.4,6.3,48,0.00,,,0.00,LWC V2.10 B1813,2013-02-13 17:30:00,
2013-02-13 11:35:00,53.4,34.2,29.26,WNW,286,6.3,6.3,48,0.00,,,0.00,LWC V2.10 B1813,2013-02-13 17:35:00,
2013-02-13 11:40:00,53.8,34.0,29.26,NW,306,4.0,6.3,47,0.00,,,0.00,LWC V2.10 B1813,2013-02-13 17:40:00,
2013-02-13 11:45:00,54.3,34.5,29.26,NW,318,4.0,6.3,47,0.00,,,0.00,LWC V2.10 B1813,2013-02-13 17:45:00,
2013-02-13 11:50:00,55.0,35.2,29.26,WNW,299,4.9,7.2,47,0.00,,,0.00,LWC V2.10 B1813,2013-02-13 17:50:00,
2013-02-13 11:55:00,55.0,34.6,29.26,NW,307,6.3,8.3,46,0.00,,,0.00,LWC V2.10 B1813,2013-02-13 17:55:00,
2013-02-13 12:00:00,54.3,34.0,29.24,WNW,302,5.8,8.3,46,0.00,,,0.00,LWC V2.10 B1813,2013-02-13 18:00:00,
2013-02-13 12:05:00,55.0,34.6,29.24,WNW,292,5.4,5.8,46,0.00,,,0.00,LWC V2.10 B1813,2013-02-13 18:05:00,
2013-02-13 12:10:00,55.8,35.3,29.24,NNE,15,3.6,7.6,46,0.00,,,0.00,LWC V2.10 B1813,2013-02-13 18:10:00,
2013-02-13 12:15:00,56.3,35.8,29.24,North,353,4.0,5.4,46,0.00,,,0.00,LWC V2.10 B1813,2013-02-13 18:15:00,
2013-02-13 12:20:00,56.8,36.3,29.24,WNW,290,2.7,4.0,46,0.00,,,0.00,LWC V2.10 B1813,2013-02-13 18:20:00,
2013-02-13 12:25:00,56.7,35.6,29.24,WNW,295,2.7,5.4,45,0.00,,,0.00,LWC V2.10 B1813,2013-02-13 18:25:00,
2013-02-13 12:30:00,57.0,35.9,29.24,NW,314,3.6,8.7,45,0.00,,,0.00,LWC V2.10 B1813,2013-02-13 18:30:00,
2013-02-13 12:35:00,57.0,35.9,29.24,North,357,5.4,5.4,45,0.00,,,0.00,LWC V2.10 B1813,2013-02-13 18:35:00,
2013-02-13 12:40:00,57.0,35.3,29.24,NW,326,5.4,8.7,44,0.00,,,0.00,LWC V2.10 B1813,2013-02-13 18:40:00,
2013-02-13 12:45:00,56.8,35.2,29.20,West,272,7.2,8.1,44,0.00,,,0.00,LWC V2.10 B1813,2013-02-13 18:45:00,
2013-02-13 12:50:00,57.2,34.9,29.20,West,272,4.9,5.4,43,0.00,,,0.00,LWC V2.10 B1813,2013-02-13 18:50:00,
2013-02-13 12:55:00,57.0,35.3,29.20,WNW,290,3.6,5.8,44,0.00,,,0.00,LWC V2.10 B1813,2013-02-13 18:55:00,
2013-02-13 13:00:00,57.9,36.1,29.20,NW,306,2.7,4.9,44,0.00,,,0.00,LWC V2.10 B1813,2013-02-13 19:00:00,
2013-02-13 13:05:00,58.1,35.7,29.20,North,353,6.3,6.3,43,0.00,,,0.00,LWC V2.10 B1813,2013-02-13 19:05:00,
2013-02-13 13:10:00,58.3,35.3,29.20,NNW,346,3.6,6.3,42,0.00,,,0.00,LWC V2.10 B1813,2013-02-13 19:10:00,
2013-02-13 13:15:00,58.1,35.1,29.20,WNW,301,2.7,5.8,42,0.00,,,0.00,LWC V2.10 B1813,2013-02-13 19:15:00,
2013-02-13 13:20:00,58.8,35.8,29.20,NNE,12,3.6,6.3,42,0.00,,,0.00,LWC V2.10 B1813,2013-02-13 19:20:00,
2013-02-13 13:25:00,59.2,36.1,29.20,SSE,159,5.8,10.5,42,0.00,,,0.00,LWC V2.10 B1813,2013-02-13 19:25:00,
2013-02-13 13:30:00,59.0,35.3,29.20,WNW,288,5.4,8.1,41,0.00,,,0.00,LWC V2.10 B1813,2013-02-13 19:30:00,
2013-02-13 13:35:00,58.5,34.8,29.20,West,267,4.0,10.1,41,0.00,,,0.00,LWC V2.10 B1813,2013-02-13 19:35:00,
2013-02-13 13:40:00,59.5,35.8,29.20,NNW,327,2.7,5.4,41,0.00,,,0.00,LWC V2.10 B1813,2013-02-13 19:40:00,
2013-02-13 13:45:00,59.9,36.1,29.18,NNW,327,5.4,5.8,41,0.00,,,0.00,LWC V2.10 B1813,2013-02-13 19:45:00,
2013-02-13 13:50:00,60.4,36.6,29.18,NNW,332,4.0,4.0,41,0.00,,,0.00,LWC V2.10 B1813,2013-02-13 19:50:00,
2013-02-13 13:55:00,59.9,35.5,29.18,NW,320,5.4,8.7,40,0.00,,,0.00,LWC V2.10 B1813,2013-02-13 19:55:00,
2013-02-13 14:00:00,60.6,36.8,29.18,North,1,2.7,3.6,41,0.00,,,0.00,LWC V2.10 B1813,2013-02-13 20:00:00,
2013-02-13 14:05:00,60.4,36.0,29.18,NW,307,5.8,6.3,40,0.00,,,0.00,LWC V2.10 B1813,2013-02-13 20:05:00,
2013-02-13 14:10:00,60.4,36.0,29.18,North,10,4.9,5.4,40,0.00,,,0.00,LWC V2.10 B1813,2013-02-13 20:10:00,
2013-02-13 14:15:00,60.6,35.5,29.18,NE,35,2.2,7.6,39,0.00,,,0.00,LWC V2.10 B1813,2013-02-13 20:15:00,
2013-02-13 14:20:00,61.2,36.0,29.18,WNW,293,3.1,3.1,39,0.00,,,0.00,LWC V2.10 B1813,2013-02-13 20:20:00,
2013-02-13 14:25:00,61.0,35.2,29.18,WSW,246,3.6,7.6,38,0.00,,,0.00,LWC V2.10 B1813,2013-02-13 20:25:00,
2013-02-13 14:30:00,61.3,35.5,29.18,WNW,294,4.0,4.0,38,0.00,,,0.00,LWC V2.10 B1813,2013-02-13 20:30:00,
2013-02-13 14:35:00,61.2,35.4,29.18,NW,317,5.4,8.7,38,0.00,,,0.00,LWC V2.10 B1813,2013-02-13 20:35:00,
2013-02-13 14:40:00,61.7,35.8,29.18,WNW,299,5.8,5.8,38,0.00,,,0.00,LWC V2.10 B1813,2013-02-13 20:40:00,
2013-02-13 14:45:00,61.3,34.8,29.18,West,261,2.7,7.6,37,0.00,,,0.00,LWC V2.10 B1813,2013-02-13 20:45:00,
2013-02-13 14:50:00,61.2,34.7,29.18,WSW,257,4.0,5.8,37,0.00,,,0.00,LWC V2.10 B1813,2013-02-13 20:50:00,
2013-02-13 14:55:00,61.9,35.3,29.18,West,276,3.6,5.8,37,0.00,,,0.00,LWC V2.10 B1813,2013-02-13 20:55:00,
2013-02-13 15:00:00,62.2,35.6,29.18,NNW,334,4.0,4.0,37,0.00,,,0.00,LWC V2.10 B1813,2013-02-13 21:00:00,
2013-02-13 15:05:00,62.4,35.1,29.18,NNW,332,3.1,5.8,36,0.00,,,0.00,LWC V2.10 B1813,2013-02-13 21:05:00,
2013-02-13 15:10:00,61.7,34.5,29.18,WNW,289,3.6,7.6,36,0.00,,,0.00,LWC V2.10 B1813,2013-02-13 21:10:00,
2013-02-13 15:15:00,61.9,34.6,29.15,WNW,300,3.6,4.9,36,0.00,,,0.00,LWC V2.10 B1813,2013-02-13 21:15:00,
2013-02-13 15:20:00,61.3,34.2,29.15,West,272,3.6,8.3,36,0.00,,,0.00,LWC V2.10 B1813,2013-02-13 21:20:00,
2013-02-13 15:25:00,61.9,35.3,29.15,WSW,254,3.6,3.6,37,0.00,,,0.00,LWC V2.10 B1813,2013-02-13 21:25:00,
2013-02-13 15:31:00,61.3,33.5,29.15,WNW,301,7.6,8.7,35,0.00,,,0.00,LWC V2.10 B1813,2013-02-13 21:31:00,
2013-02-13 15:36:00,61.5,33.6,29.15,NW,325,5.4,8.7,35,0.00,,,0.00,LWC V2.10 B1813,2013-02-13 21:36:00,
2013-02-13 15:41:00,61.3,33.5,29.15,WSW,238,3.1,4.9,35,0.00,,,0.00,LWC V2.10 B1813,2013-02-13 21:41:00,
2013-02-13 15:46:00,61.5,33.6,29.15,WSW,249,4.0,9.6,35,0.00,,,0.00,LWC V2.10 B1813,2013-02-13 21:46:00,
2013-02-13 15:51:00,61.7,33.8,29.15,West,270,5.4,5.8,35,0.00,,,0.00,LWC V2.10 B1813,2013-02-13 21:51:00,
2013-02-13 15:56:00,61.9,33.9,29.15,SW,221,6.3,6.3,35,0.00,,,0.00,LWC V2.10 B1813,2013-02-13 21:56:00,
2013-02-13 16:01:00,61.9,33.9,29.15,SSW,211,3.6,6.3,35,0.00,,,0.00,LWC V2.10 B1813,2013-02-13 22:01:00,
2013-02-13 16:06:00,62.4,34.4,29.15,SW,221,5.4,8.7,35,0.00,,,0.00,LWC V2.10 B1813,2013-02-13 22:06:00,
2013-02-13 16:11:00,61.7,33.0,29.15,WNW,301,8.3,10.1,34,0.00,,,0.00,LWC V2.10 B1813,2013-02-13 22:11:00,
2013-02-13 16:16:00,61.7,33.8,29.15,WNW,288,7.6,7.6,35,0.00,,,0.00,LWC V2.10 B1813,2013-02-13 22:16:00,
2013-02-13 16:21:00,61.7,33.0,29.15,West,266,2.7,5.8,34,0.00,,,0.00,LWC V2.10 B1813,2013-02-13 22:21:00,
2013-02-13 16:26:00,61.7,33.0,29.15,WNW,287,3.1,5.8,34,0.00,,,0.00,LWC V2.10 B1813,2013-02-13 22:26:00,
2013-02-13 16:31:00,62.4,34.4,29.15,NNW,335,4.9,6.3,35,0.00,,,0.00,LWC V2.10 B1813,2013-02-13 22:31:00,
2013-02-13 16:36:00,61.7,33.0,29.15,NNW,329,0.0,4.9,34,0.00,,,0.00,LWC V2.10 B1813,2013-02-13 22:36:00,
2013-02-13 16:41:00,61.9,33.2,29.15,NNW,337,4.0,8.1,34,0.00,,,0.00,LWC V2.10 B1813,2013-02-13 22:41:00,
2013-02-13 16:46:00,62.1,33.4,29.15,WNW,286,3.6,6.3,34,0.00,,,0.00,LWC V2.10 B1813,2013-02-13 22:46:00,
2013-02-13 16:51:00,61.9,33.2,29.15,WNW,289,4.5,6.3,34,0.00,,,0.00,LWC V2.10 B1813,2013-02-13 22:51:00,
2013-02-13 16:56:00,61.7,33.0,29.15,NNW,335,4.0,5.4,34,0.00,,,0.00,LWC V2.10 B1813,2013-02-13 22:56:00,
2013-02-13 17:01:00,61.7,33.0,29.15,NW,315,7.6,7.6,34,0.00,,,0.00,LWC V2.10 B1813,2013-02-13 23:01:00,
2013-02-13 17:06:00,61.2,32.6,29.15,WNW,290,7.6,10.1,34,0.00,,,0.00,LWC V2.10 B1813,2013-02-13 23:06:00,
2013-02-13 17:11:00,61.3,32.7,29.15,NNW,330,2.7,3.1,34,0.00,,,0.00,LWC V2.10 B1813,2013-02-13 23:11:00,
2013-02-13 17:16:00,61.2,32.6,29.15,North,353,2.2,8.3,34,0.00,,,0.00,LWC V2.10 B1813,2013-02-13 23:16:00,
2013-02-13 17:21:00,61.5,32.9,29.15,WNW,283,3.1,5.8,34,0.00,,,0.00,LWC V2.10 B1813,2013-02-13 23:21:00,
2013-02-13 17:26:00,61.5,32.9,29.15,NW,306,2.7,5.8,34,0.00,,,0.00,LWC V2.10 B1813,2013-02-13 23:26:00,
2013-02-13 17:31:00,61.0,32.4,29.12,NW,310,5.4,7.6,34,0.00,,,0.00,LWC V2.10 B1813,2013-02-13 23:31:00,
2013-02-13 17:36:00,60.6,32.1,29.12,West,281,4.9,5.8,34,0.00,,,0.00,LWC V2.10 B1813,2013-02-13 23:36:00,
2013-02-13 17:41:00,60.6,32.1,29.12,West,270,5.4,5.4,34,0.00,,,0.00,LWC V2.10 B1813,2013-02-13 23:41:00,
2013-02-13 17:46:00,60.6,32.1,29.15,WNW,302,3.6,4.9,34,0.00,,,0.00,LWC V2.10 B1813,2013-02-13 23:46:00,
2013-02-13 17:51:00,60.4,31.9,29.15,West,276,5.4,7.6,34,0.00,,,0.00,LWC V2.10 B1813,2013-02-13 23:51:00,
2013-02-13 17:56:00,60.1,31.6,29.15,West,280,3.6,4.9,34,0.00,,,0.00,LWC V2.10 B1813,2013-02-13 23:56:00,
2013-02-13 18:01:00,59.7,31.3,29.15,WNW,302,4.0,5.4,34,0.00,,,0.00,LWC V2.10 B1813,2013-02-14 00:01:00,
2013-02-13 18:06:00,59.5,31.1,29.15,West,270,2.7,3.1,34,0.00,,,0.00,LWC V2.10 B1813,2013-02-14 00:06:00,
2013-02-13 18:11:00,59.2,30.8,29.15,West,268,2.7,2.7,34,0.00,,,0.00,LWC V2.10 B1813,2013-02-14 00:11:00,
2013-02-13 18:16:00,58.6,31.1,29.15,West,269,2.7,4.0,35,0.00,,,0.00,LWC V2.10 B1813,2013-02-14 00:16:00,
2013-02-13 18:21:00,58.1,30.6,29.15,WNW,288,0.0,0.0,35,0.00,,,0.00,LWC V2.10 B1813,2013-02-14 00:21:00,
2013-02-13 18:26:00,57.7,30.3,29.15,WNW,288,0.0,0.0,35,0.00,,,0.00,LWC V2.10 B1813,2013-02-14 00:26:00,
2013-02-13 18:31:00,57.2,29.8,29.15,WNW,288,0.0,0.0,35,0.00,,,0.00,LWC V2.10 B1813,2013-02-14 00:31:00,
2013-02-13 18:36:00,56.8,29.5,29.15,WNW,288,0.0,0.0,35,0.00,,,0.00,LWC V2.10 B1813,2013-02-14 00:36:00,
2013-02-13 18:41:00,56.7,29.3,29.15,WNW,288,0.0,0.0,35,0.00,,,0.00,LWC V2.10 B1813,2013-02-14 00:41:00,
2013-02-13 18:46:00,56.5,29.9,29.15,WNW,288,0.0,0.0,36,0.00,,,0.00,LWC V2.10 B1813,2013-02-14 00:46:00,
2013-02-13 18:51:00,56.5,29.9,29.15,WNW,288,0.0,0.0,36,0.00,,,0.00,LWC V2.10 B1813,2013-02-14 00:51:00,
2013-02-13 18:56:00,56.3,29.7,29.15,WNW,288,0.0,0.0,36,0.00,,,0.00,LWC V2.10 B1813,2013-02-14 00:56:00,
2013-02-13 19:01:00,55.9,29.4,29.15,North,353,0.0,0.0,36,0.00,,,0.00,LWC V2.10 B1813,2013-02-14 01:01:00,
2013-02-13 19:06:00,55.8,29.2,29.15,NE,51,2.7,3.1,36,0.00,,,0.00,LWC V2.10 B1813,2013-02-14 01:06:00,
2013-02-13 19:11:00,55.8,29.2,29.15,NE,54,2.7,2.7,36,0.00,,,0.00,LWC V2.10 B1813,2013-02-14 01:11:00,
2013-02-13 19:16:00,55.8,29.2,29.15,East,88,2.7,4.0,36,0.00,,,0.00,LWC V2.10 B1813,2013-02-14 01:16:00,
2013-02-13 19:21:00,55.6,29.1,29.15,ENE,69,4.0,4.0,36,0.00,,,0.00,LWC V2.10 B1813,2013-02-14 01:21:00,
2013-02-13 19:26:00,55.0,28.6,29.15,ENE,72,3.1,3.6,36,0.00,,,0.00,LWC V2.10 B1813,2013-02-14 01:26:00,
2013-02-13 19:31:00,54.7,28.9,29.15,ENE,74,4.0,4.0,37,0.00,,,0.00,LWC V2.10 B1813,2013-02-14 01:31:00,
2013-02-13 19:36:00,54.1,28.4,29.15,ENE,78,2.7,4.0,37,0.00,,,0.00,LWC V2.10 B1813,2013-02-14 01:36:00,
2013-02-13 19:41:00,54.0,28.3,29.15,NE,56,3.6,4.0,37,0.00,,,0.00,LWC V2.10 B1813,2013-02-14 01:41:00,
2013-02-13 19:46:00,54.0,28.3,29.18,ENE,78,4.9,5.4,37,0.00,,,0.00,LWC V2.10 B1813,2013-02-14 01:46:00,
2013-02-13 19:51:00,53.8,28.1,29.18,ENE,66,4.0,5.8,37,0.00,,,0.00,LWC V2.10 B1813,2013-02-14 01:51:00,
2013-02-13 19:56:00,53.6,28.0,29.18,East,100,3.6,4.5,37,0.00,,,0.00,LWC V2.10 B1813,2013-02-14 01:56:00,
2013-02-13 20:01:00,53.4,28.5,29.15,ENE,57,4.9,5.8,38,0.00,,,0.00,LWC V2.10 B1813,2013-02-14 02:01:00,
2013-02-13 20:06:00,53.1,28.1,29.15,East,81,4.0,5.4,38,0.00,,,0.00,LWC V2.10 B1813,2013-02-14 02:06:00,
2013-02-13 20:11:00,53.1,28.1,29.15,East,87,5.4,5.8,38,0.00,,,0.00,LWC V2.10 B1813,2013-02-14 02:11:00,
2013-02-13 20:16:00,52.7,27.8,29.18,ENE,64,4.5,5.4,38,0.00,,,0.00,LWC V2.10 B1813,2013-02-14 02:16:00,
2013-02-13 20:21:00,52.7,27.8,29.18,NE,55,3.1,4.9,38,0.00,,,0.00,LWC V2.10 B1813,2013-02-14 02:21:00,
2013-02-13 20:26:00,52.5,27.7,29.18,ENE,74,3.6,4.9,38,0.00,,,0.00,LWC V2.10 B1813,2013-02-14 02:26:00,
2013-02-13 20:31:00,52.3,27.5,29.18,NE,53,3.6,6.3,38,0.00,,,0.00,LWC V2.10 B1813,2013-02-14 02:31:00,
2013-02-13 20:36:00,52.0,27.8,29.18,ENE,71,3.6,4.9,39,0.00,,,0.00,LWC V2.10 B1813,2013-02-14 02:36:00,
2013-02-13 20:41:00,51.8,27.6,29.18,ENE,78,4.0,4.0,39,0.00,,,0.00,LWC V2.10 B1813,2013-02-14 02:41:00,
2013-02-13 20:46:00,51.6,27.5,29.18,East,91,4.9,4.9,39,0.00,,,0.00,LWC V2.10 B1813,2013-02-14 02:46:00,
2013-02-13 20:51:00,51.6,27.5,29.18,ENE,67,4.5,4.9,39,0.00,,,0.00,LWC V2.10 B1813,2013-02-14 02:51:00,
2013-02-13 20:56:00,51.3,27.2,29.18,ENE,73,5.8,5.8,39,0.00,,,0.00,LWC V2.10 B1813,2013-02-14 02:56:00,
2013-02-13 21:01:00,50.9,27.4,29.15,NE,47,5.4,5.4,40,0.00,,,0.00,LWC V2.10 B1813,2013-02-14 03:01:00,
2013-02-13 21:06:00,50.4,27.0,29.15,ENE,62,5.8,7.6,40,0.00,,,0.00,LWC V2.10 B1813,2013-02-14 03:06:00,
2013-02-13 21:11:00,50.0,27.2,29.15,ENE,68,5.8,8.7,41,0.00,,,0.00,LWC V2.10 B1813,2013-02-14 03:11:00,
2013-02-13 21:16:00,49.6,27.5,29.18,East,86,5.8,8.3,42,0.00,,,0.00,LWC V2.10 B1813,2013-02-14 03:16:00,
2013-02-13 21:21:00,49.5,27.9,29.18,East,88,5.4,7.6,43,0.00,,,0.00,LWC V2.10 B1813,2013-02-14 03:21:00,
2013-02-13 21:26:00,49.3,28.3,29.18,NE,45,4.9,7.2,44,0.00,,,0.00,LWC V2.10 B1813,2013-02-14 03:26:00,
2013-02-13 21:31:00,48.9,28.5,29.18,NNE,27,2.7,7.2,45,0.00,,,0.00,LWC V2.10 B1813,2013-02-14 03:31:00,
2013-02-13 21:36:00,48.7,28.9,29.18,ENE,64,5.8,5.8,46,0.00,,,0.00,LWC V2.10 B1813,2013-02-14 03:36:00,
2013-02-13 21:41:00,48.6,28.7,29.18,ENE,71,3.6,4.9,46,0.00,,,0.00,LWC V2.10 B1813,2013-02-14 03:41:00,
2013-02-13 21:46:00,48.4,29.1,29.18,ENE,60,6.3,6.3,47,0.00,,,0.00,LWC V2.10 B1813,2013-02-14 03:46:00,
2013-02-13 21:51:00,48.4,29.1,29.18,ENE,57,5.8,6.3,47,0.00,,,0.00,LWC V2.10 B1813,2013-02-14 03:51:00,
2013-02-13 21:56:00,48.4,29.6,29.18,NE,55,2.7,5.4,48,0.00,,,0.00,LWC V2.10 B1813,2013-02-14 03:56:00,
2013-02-13 22:01:00,48.2,29.4,29.18,ENE,67,3.6,8.1,48,0.00,,,0.00,LWC V2.10 B1813,2013-02-14 04:01:00,
2013-02-13 22:06:00,48.0,29.8,29.18,East,79,4.0,5.8,49,0.00,,,0.00,LWC V2.10 B1813,2013-02-14 04:06:00,
2013-02-13 22:11:00,48.0,29.8,29.18,ENE,64,5.4,6.3,49,0.00,,,0.00,LWC V2.10 B1813,2013-02-14 04:11:00,
2013-02-13 22:16:00,47.8,30.1,29.18,East,90,4.0,6.3,50,0.00,,,0.00,LWC V2.10 B1813,2013-02-14 04:16:00,
2013-02-13 22:21:00,47.8,30.1,29.18,ENE,66,2.2,4.9,50,0.00,,,0.00,LWC V2.10 B1813,2013-02-14 04:21:00,
2013-02-13 22:26:00,47.7,29.9,29.18,ENE,77,3.1,4.9,50,0.00,,,0.00,LWC V2.10 B1813,2013-02-14 04:26:00,
2013-02-13 22:31:00,47.5,30.3,29.18,SE,132,0.0,3.1,51,0.00,,,0.00,LWC V2.10 B1813,2013-02-14 04:31:00,
2013-02-13 22:36:00,47.3,30.1,29.18,East,81,2.7,2.7,51,0.00,,,0.00,LWC V2.10 B1813,2013-02-14 04:36:00,
2013-02-13 22:41:00,47.1,29.9,29.18,SE,129,2.2,2.7,51,0.00,,,0.00,LWC V2.10 B1813,2013-02-14 04:41:00,
2013-02-13 22:46:00,46.9,30.2,29.18,ENE,62,3.6,4.0,52,0.00,,,0.00,LWC V2.10 B1813,2013-02-14 04:46:00,
2013-02-13 22:51:00,46.6,29.9,29.18,East,89,4.0,4.0,52,0.00,,,0.00,LWC V2.10 B1813,2013-02-14 04:51:00,
2013-02-13 22:56:00,46.4,29.7,29.18,ENE,63,2.7,3.6,52,0.00,,,0.00,LWC V2.10 B1813,2013-02-14 04:56:00,
2013-02-13 23:00:00,46.4,30.2,29.18,East,84,2.2,4.0,53,0.00,,,0.00,LWC V2.10 B1813,2013-02-14 05:00:00,
2013-02-13 23:05:00,46.4,30.2,29.18,East,99,2.2,3.6,53,0.00,,,0.00,LWC V2.10 B1813,2013-02-14 05:05:00,
2013-02-13 23:10:00,46.4,30.7,29.18,SE,141,0.0,2.7,54,0.00,,,0.00,LWC V2.10 B1813,2013-02-14 05:10:00,
2013-02-13 23:15:00,45.9,30.2,29.18,SE,136,2.2,2.2,54,0.00,,,0.00,LWC V2.10 B1813,2013-02-14 05:15:00,
2013-02-13 23:20:00,45.5,30.3,29.18,ESE,111,0.0,3.1,55,0.00,,,0.00,LWC V2.10 B1813,2013-02-14 05:20:00,
2013-02-13 23:25:00,45.3,30.6,29.18,SE,136,0.0,0.0,56,0.00,,,0.00,LWC V2.10 B1813,2013-02-14 05:25:00,
2013-02-13 23:30:00,45.0,30.7,29.20,South,172,0.0,0.0,57,0.00,,,0.00,LWC V2.10 B1813,2013-02-14 05:30:00,
2013-02-13 23:35:00,44.4,30.6,29.20,SSE,168,0.0,0.0,58,0.00,,,0.00,LWC V2.10 B1813,2013-02-14 05:35:00,
2013-02-13 23:40:00,44.2,30.8,29.20,South,176,2.2,2.7,59,0.00,,,0.00,LWC V2.10 B1813,2013-02-14 05:40:00,
2013-02-13 23:45:00,44.1,31.5,29.20,South,176,3.6,3.6,61,0.00,,,0.00,LWC V2.10 B1813,2013-02-14 05:45:00,
2013-02-13 23:50:00,44.1,31.9,29.20,South,169,0.0,2.7,62,0.00,,,0.00,LWC V2.10 B1813,2013-02-14 05:50:00,
2013-02-13 23:55:00,44.1,32.3,29.20,SSE,148,3.1,3.1,63,0.00,,,0.00,LWC V2.10 B1813,2013-02-14 05:55:00,